Temperature
13 13 14 14 14 14 14 14 14 15 15 15 15 14 14 14 15 15 15 15 15 15 15 15 15 15 15 15 15 15 15 15 15 15 15 15 15 15 15 15 15 15 15
13 13 14 14 14 14 14 14 14 14 14 14 14 14 14 14 14 14 14 14 15 15 15 15 15 15 15 15 15 14 14 14 14 14 14 14 14 14 14 14 14 14 14
13 13 13 13 14 14 14 14 14 14 14 14 14 14 14 14 14 14 14 14 14 14 14 15 15 15 15 15 14 14 14 14 14 14 14 14 14 14 14 14 14 14 14
13 13 13 13 13 13 13 14 14 14 14 14 14 14 14 14 14 14 14 14 14 15 15 15 15 15 15 15 14 14 14 14 14 14 14 14 14 14 14 14 14 14 14
13 13 13 13 13 13 13 13 13 14 14 14 14 14 14 14 14 14 14 15 15 15 15 15 15 14 14 14 14 14 14 14 14 14 14 14 14 14 14 14 14 14 13
12 12 12 13 13 13 13 13 13 13 13 14 14 14 14 14 14 14 15 14 14 15 15 15 14 14 14 14 14 14 14 14 14 14 14 14 13 13 13 13 13 13 13
12 12 12 12 12 12 12 13 13 13 13 13 13 13 14 14 14 14 14 15 15 15 15 15 14 14 14 14 14 14 14 14 14 13 13 13 13 13 13 13 13 13 12
12 12 12 12 12 12 12 12 12 12 12 13 13 13 13 14 14 14 14 14 14 15 15 14 14 14 14 14 14 14 14 14 13 13 13 13 13 13 13 13 13 12 12
12 12 12 12 12 12 12 12 12 12 12 12 12 12 13 13 13 14 14 14 14 14 14 14 14 14 14 14 14 14 14 13 13 13 13 13 13 13 13 12 12 12 12
12 12 12 12 12 12 11 11 11 12 11 12 12 12 12 13 13 13 14 14 14 14 14 14 14 14 14 14 14 14 14 13 13 13 13 12 12 12 12 12 12 12 12
12 12 12 12 12 11 11 11 11 11 11 11 11 11 12 12 12 13 13 13 13 14 14 14 14 14 14 13 13 13 13 13 13 12 12 12 12 12 12 12 12 12 11
12 12 12 12 12 11 11 11 11 11 11 11 11 11 11 11 12 12 12 13 13 13 13 13 13 13 13 13 13 13 13 12 12 12 12 12 12 11 11 11 11 11 11
12 12 12 12 11 11 11 11 11 11 11 11 11 11 11 11 11 11 12 12 12 12 12 12 12 12 12 12 12 12 12 12 12 12 12 11 11 11 11 11 11 10 10
12 12 12 11 11 11 11 11 11 11 11 11 11 10 10 10 11 11 11 11 12 12 12 12 12 12 12 12 12 12 12 12 11 11 11 11 11 11 10 10 10 10 10
12 12 12 11 11 11 11 11 11 11 10 10 10 10 10 10 10 11 11 11 11 11 11 11 11 11 11 11 11 11 11 11 11 11 11 10 10 10 10 10 9 9 9
12 12 12 11 11 11 11 10 10 10 10 10 10 10 10 10 10 10 11 11 11 11 11 11 11 11 11 11 11 11 10 10 10 10 10 10 10 9 9 9 9 9 8
12 12 12 11 11 11 11 10 10 10 10 10 10 10 10 10 10 10 10 10 10 10 11 11 10 10 10 10 10 10 10 10 9 9 9 9 9 9 8 8 8 8 8
12 12 12 11 11 11 11 10 10 10 10 10 10 10 9 10 10 10 10 10 10 10 10 10 10 10 10 10 10 9 9 9 9 9 9 9 8 8 8 8 7 7 7
12 12 12 12 11 11 11 11 10 10 10 10 9 9 9 9 9 9 10 10 10 10 10 9 9 9 9 9 9 9 9 9 9 9 9 8 8 8 7 7 7 7 7
12 12 12 12 11 11 11 11 10 10 10 10 10 9 9 9 9 9 9 9 9 9 9 9 9 9 9 9 9 9 9 9 9 8 8 8 8 7 7 7 7 6 6
12 12 12 12 12 11 11 11 11 10 10 10 10 9 9 9 9 9 9 9 9 9 9 9 9 9 9 9 9 9 9 8 8 8 8 7 7 7 7 6 6 6 6
13 12 12 12 12 11 11 11 11 10 10 10 10 9 9 9 9 9 9 9 9 9 9 9 9 9 9 9 9 9 9 8 8 8 7 7 7 7 6 6 6 6 6
13 13 12 12 12 12 11 11 11 11 10 10 10 10 10 9 9 9 9 9 9 9 9 9 9 9 9 9 9 9 9 8 8 8 7 7 7 6 6 6 6 6 6
13 13 13 12 12 12 12 11 11 11 11 10 10 10 10 10 10 9 9 9 9 9 9 9 9 9 9 9 9 9 9 8 8 7 7 7 7 6 6 6 6 6 6
13 13 13 12 12 12 12 11 11 11 11 11 11 10 10 10 10 10 9 9 9 9 9 9 9 9 9 9 9 9 9 8 8 7 7 7 7 6 6 6 6 6 5
13 13 13 13 12 12 12 12 12 11 11 11 11 11 10 10 10 10 9 9 9 9 9 9 9 9 9 9 9 9 9 9 8 7 7 7 7 6 6 6 6 6 5
Wind_Speed
10 9 9 8 8 7 6 5 3 2 1 0 2 3 4 4 4 4 4 5 5 5 5 6 6 5 4 4 4 4 4 4 4 3 2 2 1 1 1 3 6 7 9
9 9 9 9 8 8 7 6 5 4 2 1 1 1 2 3 3 4 4 5 5 5 5 5 5 4 5 4 4 4 4 4 4 3 2 1 2 2 1 2 3 5 7
9 9 10 10 10 9 9 8 7 6 6 5 3 2 2 2 2 2 3 3 4 4 5 6 5 5 5 3 4 3 3 3 3 2 1 1 1 1 1 1 2 2 4
9 9 10 10 9 9 9 8 8 7 6 5 4 4 4 4 3 1 2 3 3 3 3 5 5 6 6 5 4 4 3 3 2 2 1 1 1 1 0 1 2 2 3
8 9 9 9 8 8 8 8 7 8 7 5 5 4 4 3 3 2 2 4 4 3 3 3 4 5 7 6 4 4 4 3 2 2 1 0 1 1 1 1 1 2 3
8 8 8 9 9 9 8 8 8 8 7 7 7 6 6 6 7 7 4 4 4 4 4 3 3 4 5 6 7 7 6 5 4 2 1 1 1 2 1 1 1 1 3
7 8 8 8 9 9 9 9 8 7 7 8 7 7 6 7 10 8 7 5 5 4 4 4 3 3 5 4 5 6 5 5 5 5 3 2 2 2 1 0 0 1 2
6 7 7 8 8 8 8 9 8 6 7 6 7 7 6 8 11 9 7 6 5 5 4 4 4 3 4 6 6 5 3 3 3 3 2 2 2 2 2 1 1 0 1
6 6 6 6 7 8 9 8 6 6 7 6 5 7 7 8 12 10 8 5 6 6 5 4 5 5 6 8 7 6 5 3 3 4 3 3 4 3 3 3 2 2 2
4 4 5 5 6 7 7 7 6 6 6 6 8 8 8 8 12 12 9 5 6 6 6 6 7 7 8 9 7 6 5 2 3 5 5 6 6 7 7 3 1 1 1
3 4 5 5 6 6 7 6 6 6 7 7 8 8 8 9 11 13 10 5 5 5 5 4 5 9 9 9 7 5 5 5 5 5 5 5 5 5 5 5 3 2 2
4 5 5 6 6 6 7 7 7 7 8 7 7 8 7 8 10 10 11 9 6 6 5 3 5 10 10 9 7 7 9 8 5 5 5 4 4 4 4 4 6 6 5
4 4 4 6 6 6 7 7 7 7 6 6 6 6 6 6 8 12 11 10 9 6 5 8 10 11 10 8 11 11 8 6 5 5 4 3 2 3 3 3 5 7 8
4 3 3 5 5 6 6 6 6 6 6 6 6 6 5 6 6 6 5 5 8 8 6 9 12 13 10 9 9 8 6 5 5 4 3 3 3 4 4 4 4 3 4
3 3 3 3 3 4 5 5 5 4 3 3 3 3 4 5 6 7 4 4 4 5 6 6 6 6 6 6 6 6 6 5 5 4 4 4 4 4 4 4 4 4 4
3 2 2 2 2 2 3 4 6 5 7 8 7 5 3 5 7 10 11 11 11 10 8 7 6 6 6 5 5 5 5 5 4 4 4 4 4 4 4 4 4 4 4
3 2 1 2 2 2 1 2 3 5 7 9 10 10 9 9 10 11 12 13 13 11 8 6 6 5 5 5 5 4 4 4 4 4 4 4 4 4 4 4 4 4 4
2 2 2 2 2 2 2 1 2 2 3 4 6 10 11 12 12 11 10 10 9 8 6 5 5 4 4 4 4 4 4 4 4 4 4 4 4 3 4 4 3 3 3
2 1 1 1 1 2 2 3 3 3 2 2 3 5 8 9 11 12 9 6 6 5 5 5 4 4 4 4 4 4 4 4 4 4 4 4 4 3 3 3 3 5 4
1 2 2 1 1 2 3 3 3 3 3 2 2 2 3 4 5 5 5 5 5 4 4 4 4 4 4 4 4 4 4 4 4 4 3 3 3 3 3 3 3 3 3
1 1 1 2 2 3 3 3 4 4 3 2 1 1 4 4 3 3 3 3 3 3 3 3 3 4 4 3 4 4 5 4 3 3 3 3 3 3 3 3 3 3 3
2 2 2 2 2 3 3 4 4 4 4 3 2 2 5 3 3 3 2 2 2 2 2 3 3 3 3 3 3 4 4 3 3 3 3 3 3 3 3 3 4 3 3
2 2 2 2 3 4 4 4 4 4 4 4 4 3 3 3 3 3 3 2 2 2 3 4 3 3 4 5 5 4 3 2 1 1 2 2 3 3 3 3 3 4 4
2 2 3 3 3 3 4 4 5 5 5 5 5 4 4 4 4 4 4 3 3 3 4 4 5 6 6 5 5 4 3 2 2 2 2 3 3 3 3 3 3 4 4
2 2 3 4 4 4 4 4 5 5 5 5 5 5 5 5 4 4 4 4 4 4 4 5 6 7 7 6 4 3 3 3 2 3 4 4 4 3 4 4 3 3 3
3 3 3 4 4 5 5 5 5 5 6 6 6 6 6 6 6 5 5 5 4 4 5 6 7 8 8 6 5 4 3 2 2 3 4 4 3 3 4 3 4 4 4
Wind_Direction
13 17 21 19 21 27 28 18 3 347 4 152 195 205 203 194 190 183 192 191 191 190 180 186 197 186 179 179 174 173 180 171 201 249 260 272 266 276 271 238 237 241 247
10 16 19 18 21 26 23 16 18 20 17 38 88 179 182 171 162 167 183 183 180 183 186 182 187 176 173 173 171 175 181 180 184 219 265 278 258 262 265 264 258 250 251
12 19 19 18 20 21 21 21 22 27 29 32 52 63 66 72 107 158 175 172 177 182 179 173 171 162 170 169 168 167 173 172 166 180 239 283 300 312 321 304 295 293 276
18 24 21 14 13 15 21 23 25 28 37 34 38 48 59 62 69 122 161 159 157 156 158 160 162 165 168 160 157 157 151 137 135 148 197 297 297 309 10 310 320 310 295
21 23 18 15 18 20 22 23 28 33 41 42 52 53 51 62 61 87 108 114 116 114 110 131 153 164 165 159 154 153 142 130 124 124 130 5 322 320 289 270 282 310 305
24 21 17 19 24 23 21 23 32 37 41 50 55 63 56 51 57 70 84 96 105 117 118 110 118 130 152 147 147 148 143 139 142 135 141 180 268 263 271 255 259 3 320
24 19 19 21 22 19 23 28 32 35 43 52 52 56 56 43 50 58 72 96 106 117 124 118 110 112 119 117 116 113 112 127 142 148 151 196 223 236 224 269 232 227 267
26 22 19 22 22 18 23 26 25 33 42 46 46 43 44 39 45 55 70 80 85 87 104 122 123 114 124 127 116 101 85 76 109 123 155 197 218 216 193 189 196 260 315
24 22 20 23 24 24 24 20 21 34 39 40 40 41 43 30 36 50 70 77 79 69 72 91 111 109 117 122 116 109 86 47 65 94 94 79 66 69 98 82 55 49 18
15 20 21 27 30 28 23 21 24 36 39 43 43 39 39 33 33 48 67 83 84 73 63 68 83 99 108 113 116 117 108 80 75 71 58 51 48 50 57 63 87 83 66
23 33 28 27 35 32 30 28 31 37 40 41 42 37 34 29 29 42 57 78 96 92 81 71 70 89 95 99 102 107 116 115 93 86 72 53 42 37 34 37 48 88 97
52 50 39 32 37 41 37 32 32 36 42 37 37 33 26 22 25 35 52 68 88 98 95 84 81 88 90 88 87 92 97 96 91 82 71 55 43 28 18 26 42 53 68
72 59 51 49 44 40 42 37 33 34 41 37 37 36 24 18 19 31 43 62 77 82 86 92 89 84 77 71 74 80 85 90 89 85 75 53 27 14 19 28 34 50 51
92 72 67 67 52 40 40 40 44 37 37 39 37 32 23 20 17 13 22 49 67 74 77 78 77 74 70 64 61 60 63 79 93 91 83 52 30 34 33 31 40 40 47
92 81 80 80 74 53 45 38 40 35 34 45 33 25 27 25 5 18 50 61 71 87 88 74 68 66 64 57 54 54 55 62 68 64 70 63 49 44 32 29 45 53 59
102 94 104 116 111 88 63 40 33 39 39 43 42 42 26 34 44 57 64 70 77 88 86 83 79 75 75 70 68 59 53 56 59 67 67 65 61 55 46 39 50 61 62
127 132 121 129 139 149 122 77 47 18 26 33 34 40 50 55 66 68 69 68 67 78 82 81 78 76 74 70 68 68 59 50 59 67 68 62 61 58 57 52 53 58 57
119 127 131 144 152 160 159 131 107 83 42 11 13 32 48 57 64 68 72 73 62 59 72 79 77 74 73 72 69 67 63 57 56 59 59 55 56 64 64 59 60 69 62
128 131 123 126 130 129 124 112 105 100 83 43 20 21 36 55 57 55 61 75 82 73 69 70 71 71 70 72 72 71 70 65 61 59 56 53 53 66 68 64 66 64 64
189 185 148 139 120 110 114 119 117 113 103 79 54 29 25 55 57 45 50 68 80 82 79 78 70 69 72 78 82 79 72 65 60 57 50 47 50 67 78 75 75 75 64
221 227 166 130 147 149 141 143 144 141 141 135 120 105 122 100 95 82 74 75 90 99 100 94 84 75 76 82 88 87 84 71 60 54 48 46 55 63 67 76 80 79 75
206 216 196 184 179 168 161 158 159 161 163 157 150 120 118 108 115 111 105 102 102 108 121 114 101 88 97 106 111 105 93 76 52 43 47 53 63 70 76 78 79 73 75
216 220 210 204 195 183 170 169 173 177 179 178 172 165 154 147 147 145 146 143 127 118 122 121 114 102 99 101 109 117 118 107 53 44 76 73 72 78 90 92 92 89 80
224 210 205 206 200 192 192 193 190 189 187 186 184 184 183 179 175 171 166 156 145 141 138 135 139 141 134 122 111 107 109 102 87 90 99 108 100 96 99 98 94 99 95
244 225 212 209 206 204 207 205 201 196 193 192 190 190 189 185 184 182 176 169 162 161 161 154 150 150 151 146 139 126 106 87 87 112 112 111 109 111 113 113 109 100 100
258 242 227 218 212 208 206 210 211 205 200 200 196 192 190 190 191 188 181 175 174 174 170 171 173 168 164 160 154 142 120 89 92 120 131 123 116 123 125 119 117 107 109
Height
1504 1501 1499 1497 1496 1495 1495 1495 1494 1494 1494 1495 1496 1497 1499 1500 1501 1503 1505 1507 1509 1512 1514 1516 1518 1521 1522 1524 1526 1528 1529 1531 1531 1533 1534 1534 1535 1536 1536 1536 1537 1537 1538
1507 1504 1501 1500 1499 1497 1497 1496 1495 1495 1495 1495 1496 1497 1498 1499 1501 1502 1504 1506 1508 1510 1513 1515 1517 1519 1520 1522 1524 1525 1527 1528 1529 1530 1531 1532 1532 1532 1532 1532 1533 1533 1533
1510 1506 1504 1502 1500 1499 1498 1497 1497 1496 1496 1496 1497 1498 1499 1500 1501 1502 1504 1506 1508 1510 1512 1514 1515 1517 1519 1520 1522 1523 1525 1526 1527 1528 1529 1529 1530 1530 1529 1529 1529 1529 1529
1513 1510 1506 1504 1502 1501 1500 1499 1498 1498 1498 1498 1499 1499 1500 1501 1502 1504 1505 1507 1509 1510 1512 1514 1515 1517 1518 1520 1521 1522 1524 1525 1525 1526 1527 1528 1528 1528 1527 1527 1526 1526 1526
1516 1513 1510 1507 1505 1503 1502 1501 1501 1500 1499 1499 1500 1501 1502 1503 1504 1505 1506 1507 1509 1511 1513 1514 1516 1517 1518 1519 1521 1522 1523 1524 1524 1525 1526 1526 1526 1526 1526 1525 1524 1523 1523
1519 1515 1513 1510 1508 1506 1504 1503 1503 1502 1502 1501 1502 1502 1503 1504 1505 1506 1507 1508 1510 1512 1513 1515 1516 1517 1519 1520 1521 1522 1523 1524 1524 1525 1525 1525 1525 1525 1524 1523 1522 1521 1521
1522 1518 1515 1513 1510 1508 1507 1505 1504 1504 1503 1503 1503 1504 1504 1505 1506 1507 1508 1509 1511 1512 1514 1515 1517 1518 1519 1520 1521 1522 1523 1524 1525 1525 1525 1525 1524 1524 1523 1522 1521 1520 1519
1525 1521 1518 1516 1513 1511 1509 1508 1507 1506 1505 1505 1505 1505 1505 1505 1506 1507 1508 1510 1511 1513 1514 1516 1517 1518 1520 1520 1521 1522 1523 1524 1524 1525 1525 1524 1524 1523 1522 1521 1520 1519 1519
1528 1525 1522 1519 1517 1514 1512 1510 1509 1508 1507 1507 1506 1506 1506 1506 1507 1507 1508 1510 1511 1513 1514 1516 1518 1519 1520 1521 1521 1522 1523 1524 1524 1524 1524 1524 1523 1522 1521 1520 1519 1518 1518
1531 1528 1526 1523 1520 1517 1515 1514 1512 1511 1510 1509 1508 1508 1507 1507 1507 1508 1509 1510 1511 1513 1514 1516 1518 1519 1520 1521 1522 1522 1523 1524 1524 1524 1524 1523 1523 1522 1521 1520 1519 1518 1517
1534 1532 1529 1526 1523 1521 1518 1516 1515 1513 1512 1511 1510 1509 1509 1509 1509 1509 1510 1510 1512 1513 1514 1516 1517 1519 1520 1521 1522 1522 1523 1523 1524 1524 1523 1523 1522 1522 1520 1520 1519 1518 1517
1537 1534 1531 1528 1526 1523 1521 1519 1517 1516 1514 1513 1512 1511 1511 1510 1510 1510 1511 1512 1513 1514 1515 1517 1518 1519 1520 1521 1522 1522 1523 1523 1523 1523 1523 1523 1522 1521 1521 1520 1519 1518 1517
1539 1537 1534 1532 1529 1527 1524 1522 1520 1519 1517 1516 1515 1514 1513 1513 1512 1513 1513 1514 1515 1516 1517 1518 1519 1520 1521 1521 1522 1523 1523 1523 1524 1523 1523 1523 1522 1521 1521 1520 1519 1518 1518
1541 1539 1537 1534 1532 1530 1528 1526 1524 1522 1520 1519 1517 1516 1516 1515 1515 1515 1515 1516 1516 1517 1518 1519 1520 1521 1522 1522 1523 1523 1523 1524 1524 1523 1523 1523 1522 1522 1521 1520 1519 1519 1518
1542 1540 1539 1537 1535 1533 1531 1529 1527 1525 1523 1522 1521 1520 1519 1518 1518 1517 1517 1518 1518 1519 1520 1521 1521 1522 1523 1523 1524 1524 1524 1524 1524 1524 1523 1523 1522 1522 1521 1520 1520 1519 1518
1543 1542 1541 1539 1537 1536 1534 1532 1530 1528 1527 1525 1524 1523 1522 1521 1520 1520 1520 1520 1520 1521 1522 1522 1523 1524 1524 1524 1525 1525 1525 1525 1524 1524 1524 1523 1522 1522 1521 1520 1520 1519 1518
1544 1543 1542 1541 1539 1538 1536 1535 1533 1532 1531 1529 1527 1526 1525 1524 1523 1523 1523 1523 1523 1524 1524 1524 1525 1525 1525 1526 1526 1526 1526 1525 1525 1525 1524 1524 1523 1523 1522 1521 1520 1520 1519
1545 1544 1543 1542 1541 1540 1539 1537 1536 1535 1534 1532 1531 1530 1528 1527 1527 1526 1526 1526 1525 1525 1525 1526 1526 1526 1527 1527 1527 1527 1526 1526 1526 1525 1525 1524 1524 1523 1523 1522 1521 1521 1520
1546 1545 1544 1543 1542 1541 1540 1539 1538 1537 1536 1535 1534 1533 1532 1531 1530 1529 1528 1528 1527 1527 1527 1527 1527 1528 1528 1527 1527 1527 1527 1527 1526 1526 1525 1525 1524 1524 1523 1523 1522 1521 1521
1546 1545 1545 1544 1543 1543 1542 1541 1540 1539 1538 1537 1536 1535 1534 1533 1532 1531 1530 1530 1529 1529 1529 1528 1528 1528 1528 1528 1528 1527 1527 1527 1526 1526 1526 1525 1525 1524 1524 1523 1523 1522 1521
1546 1546 1545 1545 1544 1543 1543 1542 1541 1540 1540 1539 1538 1537 1536 1535 1534 1533 1532 1532 1531 1530 1530 1530 1529 1529 1529 1528 1528 1527 1527 1527 1526 1526 1526 1525 1525 1524 1524 1524 1523 1522 1522
1546 1545 1545 1545 1544 1543 1543 1543 1542 1541 1541 1540 1539 1538 1538 1537 1536 1535 1534 1533 1532 1532 1531 1531 1530 1529 1529 1528 1528 1527 1527 1527 1526 1526 1526 1526 1525 1525 1525 1524 1524 1523 1522
1544 1544 1544 1544 1543 1543 1543 1543 1542 1542 1541 1541 1540 1539 1539 1538 1537 1536 1535 1534 1533 1532 1532 1531 1530 1530 1529 1528 1528 1527 1527 1526 1526 1526 1526 1526 1526 1526 1525 1525 1524 1524 1523
1542 1542 1543 1543 1542 1542 1542 1542 1542 1541 1541 1541 1540 1540 1539 1538 1537 1536 1535 1534 1533 1533 1532 1531 1531 1530 1529 1528 1528 1527 1527 1526 1526 1526 1526 1526 1526 1526 1526 1525 1525 1524 1524
1540 1540 1541 1541 1541 1541 1541 1541 1541 1540 1540 1540 1540 1539 1539 1538 1537 1536 1535 1534 1534 1533 1532 1531 1531 1530 1529 1528 1528 1527 1526 1526 1526 1526 1526 1526 1526 1526 1526 1526 1525 1525 1525
1538 1538 1538 1538 1539 1539 1539 1539 1539 1539 1539 1538 1538 1538 1538 1537 1536 1536 1535 1534 1533 1532 1532 1531 1530 1530 1529 1528 1528 1527 1527 1526 1526 1526 1526 1526 1526 1526 1526 1526 1526 1526 1525